| time (UTC) | temp F | wind direction | speed MPH | gust MPH | rain 1hr in | rain 24hr in | rain mn in | humidity % | barometer mb |
| 20260508032557 | 49 | 0 | 0.0 | 0.0 | 0.00 | 0.21 | 0.21 | 89 | 1010.9 |
| 20260508032054 | 49 | 0 | 0.0 | 0.0 | 0.00 | 0.21 | 0.21 | 89 | 1010.9 |
| 20260508031558 | 49 | 0 | 0.0 | 1.0 | 0.00 | 0.21 | 0.21 | 89 | 1011.0 |
| 20260508031052 | 49 | 0 | 0.0 | 1.0 | 0.00 | 0.21 | 0.21 | 89 | 1011.0 |
| 20260508030554 | 49 | 0 | 0.0 | 1.0 | 0.00 | 0.21 | 0.21 | 89 | 1010.8 |
| 20260508025554 | 50 | 0 | 0.0 | 0.0 | 0.00 | 0.21 | 0.21 | 89 | 1010.8 |
| 20260508025055 | 50 | 0 | 0.0 | 0.0 | 0.00 | 0.21 | 0.21 | 89 | 1010.9 |
| 20260508024617 | 50 | 0 | 0.0 | 0.0 | 0.00 | 0.21 | 0.21 | 89 | 1010.8 |
| 20260508024053 | 50 | 0 | 0.0 | 0.0 | 0.00 | 0.21 | 0.21 | 89 | 1010.8 |
| 20260508023555 | 50 | 0 | 0.0 | 0.0 | 0.00 | 0.21 | 0.21 | 88 | 1010.8 |
| 20260508023055 | 50 | 0 | 0.0 | 0.0 | 0.00 | 0.21 | 0.21 | 88 | 1010.7 |
| 20260508022551 | 50 | 0 | 0.0 | 0.0 | 0.00 | 0.21 | 0.21 | 88 | 1010.8 |
| 20260508022054 | 50 | 0 | 0.0 | 0.0 | 0.00 | 0.21 | 0.21 | 88 | 1010.9 |
| 20260508021601 | 51 | 0 | 0.0 | 0.0 | 0.00 | 0.21 | 0.21 | 88 | 1010.8 |
| 20260508021053 | 51 | 0 | 0.0 | 0.0 | 0.00 | 0.21 | 0.21 | 89 | 1010.7 |
| 20260508020554 | 51 | 0 | 0.0 | 1.0 | 0.00 | 0.21 | 0.21 | 89 | 1010.7 |
| 20260508020111 | 51 | 0 | 0.0 | 1.0 | 0.00 | 0.21 | 0.21 | 90 | 1010.8 |
| 20260508015552 | 51 | 0 | 0.0 | 0.0 | 0.00 | 0.21 | 0.21 | 90 | 1010.7 |
| 20260508015052 | 51 | 0 | 0.0 | 0.0 | 0.00 | 0.21 | 0.21 | 89 | 1010.7 |
| 20260508014557 | 51 | 0 | 0.0 | 0.0 | 0.00 | 0.21 | 0.21 | 89 | 1010.6 |
| 20260508014055 | 51 | 0 | 0.0 | 0.0 | 0.00 | 0.21 | 0.21 | 88 | 1010.5 |
| 20260508013552 | 51 | 0 | 0.0 | 0.0 | 0.00 | 0.21 | 0.21 | 88 | 1010.4 |
| 20260508013055 | 51 | 0 | 0.0 | 0.0 | 0.00 | 0.21 | 0.21 | 87 | 1010.4 |
| 20260508012555 | 51 | 0 | 0.0 | 0.0 | 0.00 | 0.21 | 0.21 | 87 | 1010.3 |
| 20260508012054 | 52 | 0 | 0.0 | 0.0 | 0.00 | 0.21 | 0.21 | 87 | 1010.2 |
| 20260508011605 | 52 | 0 | 0.0 | 0.0 | 0.00 | 0.21 | 0.21 | 87 | 1010.1 |
| 20260508011053 | 52 | 0 | 0.0 | 0.0 | 0.00 | 0.21 | 0.21 | 87 | 1010.1 |
| 20260508010553 | 52 | 0 | 0.0 | 0.0 | 0.00 | 0.21 | 0.21 | 86 | 1010.0 |
| 20260508010057 | 52 | 0 | 0.0 | 0.0 | 0.00 | 0.21 | 0.21 | 86 | 1010.1 |
| 20260508005607 | 52 | 0 | 0.0 | 0.0 | 0.00 | 0.21 | 0.21 | 85 | 1009.9 |
| 20260508005054 | 53 | 0 | 0.0 | 0.0 | 0.00 | 0.21 | 0.21 | 85 | 1010.0 |
| 20260508004600 | 53 | 0 | 0.0 | 1.0 | 0.00 | 0.21 | 0.21 | 84 | 1009.9 |
| 20260508004051 | 53 | 0 | 0.0 | 1.0 | 0.00 | 0.21 | 0.21 | 84 | 1009.9 |
| 20260508003554 | 54 | 0 | 0.0 | 0.0 | 0.00 | 0.21 | 0.21 | 83 | 1009.7 |
| 20260508003055 | 54 | 0 | 0.0 | 0.0 | 0.00 | 0.21 | 0.21 | 83 | 1009.7 |
| 20260508002554 | 54 | 0 | 0.0 | 1.0 | 0.00 | 0.21 | 0.21 | 83 | 1009.6 |
| 20260508002054 | 54 | 0 | 0.0 | 1.0 | 0.00 | 0.21 | 0.21 | 83 | 1009.6 |
| 20260508001553 | 55 | 0 | 0.0 | 0.0 | 0.00 | 0.21 | 0.21 | 82 | 1009.5 |
| 20260508001053 | 55 | 0 | 0.0 | 0.0 | 0.00 | 0.21 | 0.21 | 82 | 1009.5 |
| 20260508000554 | 56 | 0 | 0.0 | 0.0 | 0.00 | 0.21 | 0.21 | 82 | 1009.4 |
| 20260508000054 | 56 | 0 | 0.0 | 0.0 | 0.00 | 0.21 | 0.21 | 81 | 1009.3 |
| 20260507235553 | 56 | 0 | 0.0 | 0.0 | 0.00 | 0.21 | 0.21 | 81 | 1009.3 |
| 20260507235051 | 57 | 0 | 0.0 | 1.0 | 0.00 | 0.21 | 0.21 | 80 | 1009.2 |
| 20260507234557 | 57 | 0 | 0.0 | 1.0 | 0.00 | 0.21 | 0.21 | 80 | 1009.1 |
| 20260507234052 | 57 | 133 | 0.0 | 1.0 | 0.00 | 0.21 | 0.21 | 79 | 1009.0 |
| 20260507233554 | 57 | 0 | 0.0 | 1.0 | 0.00 | 0.21 | 0.21 | 79 | 1009.0 |
| 20260507233100 | 58 | 0 | 0.0 | 2.0 | 0.00 | 0.21 | 0.21 | 79 | 1009.0 |
| 20260507232551 | 58 | 0 | 0.0 | 2.0 | 0.00 | 0.21 | 0.21 | 79 | 1009.0 |
| 20260507232057 | 58 | 0 | 0.0 | 0.0 | 0.00 | 0.21 | 0.21 | 78 | 1008.9 |
| 20260507231552 | 58 | 0 | 0.0 | 0.0 | 0.00 | 0.21 | 0.21 | 78 | 1008.9 |
| 20260507231055 | 58 | 0 | 0.0 | 1.0 | 0.00 | 0.21 | 0.21 | 79 | 1009.0 |
| 20260507230557 | 58 | 0 | 0.0 | 1.0 | 0.00 | 0.21 | 0.21 | 78 | 1008.8 |
| 20260507230108 | 58 | 0 | 0.0 | 1.0 | 0.00 | 0.21 | 0.21 | 78 | 1008.8 |
| 20260507225553 | 59 | 0 | 0.0 | 1.0 | 0.00 | 0.21 | 0.21 | 77 | 1008.8 |
| 20260507225055 | 59 | 0 | 0.0 | 1.0 | 0.00 | 0.21 | 0.21 | 77 | 1008.7 |
| 20260507224555 | 59 | 0 | 0.0 | 1.0 | 0.00 | 0.21 | 0.21 | 78 | 1008.7 |
| 20260507224057 | 59 | 262 | 0.0 | 1.0 | 0.00 | 0.21 | 0.21 | 76 | 1008.6 |
| 20260507223553 | 59 | 0 | 0.0 | 1.0 | 0.00 | 0.21 | 0.21 | 77 | 1008.7 |
| 20260507223053 | 59 | 297 | 0.0 | 2.0 | 0.00 | 0.21 | 0.21 | 78 | 1008.8 |
| 20260507222553 | 59 | 300 | 0.0 | 2.0 | 0.00 | 0.21 | 0.21 | 76 | 1008.8 |
| 20260507222052 | 59 | 201 | 0.0 | 2.0 | 0.00 | 0.21 | 0.21 | 76 | 1008.8 |
| 20260507221556 | 59 | 230 | 0.0 | 2.0 | 0.00 | 0.21 | 0.21 | 77 | 1008.9 |
| 20260507221054 | 59 | 140 | 0.0 | 2.0 | 0.00 | 0.21 | 0.21 | 76 | 1008.8 |
| 20260507220553 | 59 | 159 | 0.0 | 1.0 | 0.00 | 0.21 | 0.21 | 77 | 1008.9 |
| 20260507220059 | 59 | 1 | 0.0 | 1.0 | 0.00 | 0.21 | 0.21 | 77 | 1008.8 |
| 20260507215556 | 59 | 1 | 0.0 | 2.0 | 0.00 | 0.21 | 0.21 | 76 | 1008.7 |
| 20260507215054 | 59 | 0 | 0.0 | 3.0 | 0.00 | 0.21 | 0.21 | 75 | 1008.8 |
| 20260507214555 | 59 | 148 | 1.0 | 3.0 | 0.00 | 0.21 | 0.21 | 72 | 1008.8 |
| 20260507214055 | 59 | 75 | 0.0 | 2.0 | 0.00 | 0.21 | 0.21 | 73 | 1009.1 |
| 20260507213557 | 59 | 156 | 0.0 | 1.0 | 0.00 | 0.21 | 0.21 | 73 | 1009.2 |
| 20260507213056 | 59 | 0 | 0.0 | 1.0 | 0.00 | 0.21 | 0.21 | 74 | 1009.3 |
| 20260507212556 | 59 | 157 | 0.0 | 1.0 | 0.00 | 0.21 | 0.21 | 73 | 1009.3 |
| 20260507212055 | 59 | 157 | 0.0 | 1.0 | 0.00 | 0.21 | 0.21 | 73 | 1009.1 |
| 20260507211602 | 59 | 0 | 0.0 | 1.0 | 0.00 | 0.21 | 0.21 | 73 | 1009.3 |
| 20260507211052 | 59 | 164 | 0.0 | 2.0 | 0.00 | 0.21 | 0.21 | 71 | 1009.2 |
| 20260507210559 | 59 | 0 | 0.0 | 2.0 | 0.00 | 0.21 | 0.21 | 69 | 1009.2 |
| 20260507210108 | 59 | 163 | 1.0 | 2.0 | 0.00 | 0.21 | 0.21 | 70 | 1009.1 |
| 20260507205554 | 59 | 0 | 0.0 | 1.0 | 0.00 | 0.21 | 0.21 | 70 | 1009.1 |
| 20260507205056 | 59 | 0 | 0.0 | 1.0 | 0.00 | 0.21 | 0.21 | 69 | 1008.8 |
| 20260507204558 | 59 | 152 | 0.0 | 1.0 | 0.00 | 0.21 | 0.21 | 68 | 1008.7 |
| 20260507204053 | 59 | 0 | 0.0 | 1.0 | 0.00 | 0.21 | 0.21 | 68 | 1008.9 |
| 20260507203554 | 58 | 0 | 0.0 | 1.0 | 0.00 | 0.21 | 0.21 | 68 | 1008.7 |
| 20260507203117 | 58 | 158 | 0.0 | 2.0 | 0.00 | 0.21 | 0.21 | 70 | 1008.8 |
| 20260507202553 | 58 | 159 | 0.0 | 2.0 | 0.00 | 0.21 | 0.21 | 70 | 1009.2 |
| 20260507202057 | 58 | 158 | 0.0 | 2.0 | 0.00 | 0.21 | 0.21 | 70 | 1009.2 |
| 20260507201557 | 58 | 0 | 0.0 | 2.0 | 0.00 | 0.21 | 0.21 | 69 | 1009.1 |
| 20260507201053 | 58 | 0 | 0.0 | 1.0 | 0.00 | 0.21 | 0.21 | 71 | 1009.1 |
| 20260507200556 | 58 | 297 | 0.0 | 1.0 | 0.00 | 0.21 | 0.21 | 71 | 1009.3 |
| 20260507200100 | 58 | 0 | 0.0 | 1.0 | 0.00 | 0.21 | 0.21 | 71 | 1009.1 |
| 20260507195555 | 58 | 160 | 0.0 | 1.0 | 0.00 | 0.21 | 0.21 | 72 | 1008.6 |
| 20260507195057 | 58 | 0 | 0.0 | 2.0 | 0.00 | 0.21 | 0.21 | 69 | 1008.7 |
| 20260507194618 | 58 | 62 | 0.0 | 3.0 | 0.00 | 0.21 | 0.21 | 71 | 1009.0 |
| 20260507194053 | 58 | 62 | 2.0 | 3.0 | 0.00 | 0.21 | 0.21 | 70 | 1009.2 |
| 20260507193553 | 58 | 72 | 0.0 | 2.0 | 0.00 | 0.21 | 0.21 | 72 | 1009.2 |
| 20260507193058 | 58 | 72 | 0.0 | 2.0 | 0.00 | 0.21 | 0.21 | 71 | 1009.2 |
| 20260507192553 | 58 | 74 | 0.0 | 2.0 | 0.00 | 0.21 | 0.21 | 71 | 1009.5 |
| 20260507192054 | 57 | 147 | 0.0 | 2.0 | 0.00 | 0.21 | 0.21 | 71 | 1009.5 |
| 20260507191555 | 57 | 53 | 0.0 | 2.0 | 0.00 | 0.21 | 0.21 | 70 | 1009.6 |
| 20260507191055 | 57 | 39 | 0.0 | 2.0 | 0.00 | 0.21 | 0.21 | 70 | 1009.8 |
| 20260507190552 | 57 | 338 | 1.0 | 2.0 | 0.00 | 0.21 | 0.21 | 70 | 1009.6 |
| 20260507185555 | 57 | 123 | 0.0 | 1.0 | 0.00 | 0.21 | 0.21 | 72 | 1009.9 |
| 20260507185053 | 57 | 123 | 0.0 | 1.0 | 0.00 | 0.21 | 0.21 | 74 | 1010.0 |
| 20260507184558 | 57 | 0 | 0.0 | 1.0 | 0.00 | 0.21 | 0.21 | 73 | 1010.0 |
| 20260507184055 | 57 | 0 | 0.0 | 1.0 | 0.00 | 0.21 | 0.21 | 73 | 1010.3 |
| 20260507183554 | 57 | 0 | 0.0 | 1.0 | 0.00 | 0.21 | 0.21 | 73 | 1010.2 |
| 20260507183056 | 57 | 126 | 0.0 | 1.0 | 0.00 | 0.21 | 0.21 | 70 | 1009.8 |
| 20260507182555 | 57 | 0 | 0.0 | 1.0 | 0.00 | 0.21 | 0.21 | 71 | 1010.2 |
| 20260507182053 | 57 | 0 | 0.0 | 1.0 | 0.00 | 0.21 | 0.21 | 76 | 1010.3 |
| 20260507181553 | 57 | 0 | 0.0 | 1.0 | 0.00 | 0.21 | 0.21 | 71 | 1010.3 |
| 20260507181053 | 57 | 0 | 0.0 | 1.0 | 0.00 | 0.21 | 0.21 | 72 | 1010.4 |
| 20260507180553 | 57 | 51 | 0.0 | 4.0 | 0.00 | 0.21 | 0.21 | 70 | 1010.6 |
| 20260507180055 | 57 | 51 | 3.0 | 4.0 | 0.00 | 0.21 | 0.21 | 69 | 1010.2 |
| 20260507175553 | 57 | 58 | 1.0 | 4.0 | 0.00 | 0.21 | 0.21 | 68 | 1010.3 |
| 20260507175054 | 57 | 0 | 0.0 | 4.0 | 0.00 | 0.21 | 0.21 | 70 | 1010.2 |
| 20260507174602 | 57 | 47 | 1.0 | 4.0 | 0.00 | 0.21 | 0.21 | 66 | 1010.2 |
| 20260507174056 | 58 | 146 | 2.0 | 4.0 | 0.00 | 0.21 | 0.21 | 68 | 1010.3 |
| 20260507173553 | 57 | 74 | 1.0 | 4.0 | 0.00 | 0.21 | 0.21 | 69 | 1010.5 |
| 20260507173129 | 57 | 0 | 2.0 | 4.0 | 0.00 | 0.21 | 0.21 | 68 | 1010.6 |
| 20260507172554 | 57 | 72 | 0.0 | 4.0 | 0.00 | 0.21 | 0.21 | 67 | 1010.6 |
| 20260507172051 | 57 | 143 | 0.0 | 4.0 | 0.00 | 0.21 | 0.21 | 70 | 1010.8 |
| 20260507171559 | 57 | 70 | 2.0 | 4.0 | 0.00 | 0.21 | 0.21 | 69 | 1010.8 |
| 20260507171055 | 57 | 48 | 1.0 | 4.0 | 0.00 | 0.21 | 0.21 | 71 | 1010.7 |
| 20260507170554 | 57 | 57 | 2.0 | 4.0 | 0.00 | 0.21 | 0.21 | 73 | 1010.7 |
| 20260507170058 | 57 | 64 | 2.0 | 5.0 | 0.00 | 0.21 | 0.21 | 71 | 1010.7 |
| 20260507165554 | 57 | 57 | 2.0 | 5.0 | 0.00 | 0.22 | 0.21 | 75 | 1010.8 |
| 20260507165053 | 57 | 58 | 0.0 | 3.0 | 0.00 | 0.22 | 0.21 | 74 | 1011.2 |
| 20260507164557 | 57 | 0 | 1.0 | 3.0 | 0.00 | 0.22 | 0.21 | 74 | 1011.6 |
| 20260507164053 | 57 | 73 | 2.0 | 3.0 | 0.00 | 0.22 | 0.21 | 75 | 1011.5 |
| 20260507163552 | 57 | 330 | 2.0 | 4.0 | 0.00 | 0.22 | 0.21 | 73 | 1011.5 |
| 20260507163055 | 57 | 55 | 1.0 | 4.0 | 0.00 | 0.22 | 0.21 | 75 | 1011.4 |
| 20260507162557 | 57 | 63 | 1.0 | 4.0 | 0.00 | 0.22 | 0.21 | 74 | 1011.5 |
| 20260507162056 | 57 | 65 | 2.0 | 4.0 | 0.00 | 0.22 | 0.21 | 77 | 1011.6 |
| 20260507161612 | 57 | 325 | 2.0 | 3.0 | 0.00 | 0.22 | 0.21 | 76 | 1011.7 |
| 20260507161055 | 56 | 59 | 1.0 | 2.0 | 0.00 | 0.22 | 0.21 | 76 | 1011.6 |
| 20260507160555 | 57 | 321 | 1.0 | 3.0 | 0.00 | 0.22 | 0.21 | 77 | 1011.8 |
| 20260507155555 | 56 | 65 | 1.0 | 2.0 | 0.00 | 0.24 | 0.21 | 77 | 1011.8 |
| 20260507155055 | 56 | 62 | 1.0 | 3.0 | 0.00 | 0.24 | 0.21 | 78 | 1011.7 |
| 20260507154558 | 56 | 50 | 1.0 | 3.0 | 0.00 | 0.24 | 0.21 | 77 | 1011.7 |
| 20260507154055 | 56 | 42 | 1.0 | 2.0 | 0.00 | 0.24 | 0.21 | 76 | 1011.7 |
| 20260507153554 | 57 | 340 | 0.0 | 3.0 | 0.00 | 0.24 | 0.21 | 77 | 1011.9 |
| 20260507153104 | 57 | 338 | 0.0 | 3.0 | 0.00 | 0.24 | 0.21 | 76 | 1011.8 |
| 20260507152647 | 57 | 66 | 1.0 | 3.0 | 0.00 | 0.24 | 0.21 | 76 | 1011.8 |
| 20260507150552 | 56 | 18 | 1.0 | 3.0 | 0.00 | 0.24 | 0.21 | 78 | 1012.1 |
| 20260507145554 | 56 | 350 | 1.0 | 4.0 | 0.00 | 0.24 | 0.21 | 77 | 1012.1 |
| 20260507145052 | 56 | 334 | 1.0 | 3.0 | 0.00 | 0.24 | 0.21 | 78 | 1012.0 |
| 20260507144612 | 56 | 321 | 1.0 | 3.0 | 0.00 | 0.24 | 0.21 | 77 | 1012.1 |
| 20260507144058 | 56 | 333 | 0.0 | 3.0 | 0.00 | 0.24 | 0.21 | 79 | 1012.2 |
| 20260507143554 | 56 | 54 | 1.0 | 3.0 | 0.00 | 0.24 | 0.21 | 81 | 1012.3 |
| 20260507143100 | 56 | 318 | 1.0 | 4.0 | 0.00 | 0.24 | 0.21 | 80 | 1012.3 |
| 20260507142553 | 56 | 319 | 2.0 | 4.0 | 0.00 | 0.24 | 0.21 | 79 | 1012.2 |
| 20260507142056 | 56 | 39 | 1.0 | 3.0 | 0.00 | 0.24 | 0.21 | 80 | 1012.2 |
| 20260507141603 | 56 | 35 | 2.0 | 3.0 | 0.00 | 0.24 | 0.21 | 79 | 1012.2 |
| 20260507141054 | 56 | 51 | 1.0 | 4.0 | 0.00 | 0.24 | 0.21 | 81 | 1012.2 |
| 20260507140554 | 56 | 53 | 2.0 | 5.0 | 0.00 | 0.24 | 0.21 | 81 | 1012.1 |
| 20260507140056 | 56 | 56 | 1.0 | 5.0 | 0.00 | 0.24 | 0.21 | 81 | 1012.3 |
| 20260507135600 | 56 | 141 | 1.0 | 5.0 | 0.00 | 0.24 | 0.21 | 83 | 1012.2 |
| 20260507135053 | 56 | 153 | 1.0 | 5.0 | 0.00 | 0.24 | 0.21 | 84 | 1012.1 |
| 20260507134555 | 56 | 50 | 2.0 | 5.0 | 0.00 | 0.24 | 0.21 | 84 | 1012.1 |
| 20260507134054 | 56 | 51 | 2.0 | 5.0 | 0.00 | 0.24 | 0.21 | 85 | 1012.1 |
| 20260507133555 | 55 | 0 | 2.0 | 5.0 | 0.00 | 0.24 | 0.21 | 83 | 1012.2 |
| 20260507133139 | 55 | 314 | 2.0 | 5.0 | 0.00 | 0.24 | 0.21 | 85 | 1012.0 |
| 20260507132554 | 55 | 46 | 2.0 | 3.0 | 0.00 | 0.24 | 0.21 | 88 | 1012.1 |
| 20260507132054 | 55 | 49 | 1.0 | 3.0 | 0.00 | 0.24 | 0.21 | 87 | 1012.1 |
| 20260507131554 | 55 | 333 | 0.0 | 2.0 | 0.00 | 0.24 | 0.21 | 88 | 1012.2 |
| 20260507131054 | 55 | 27 | 0.0 | 2.0 | 0.00 | 0.24 | 0.21 | 88 | 1012.2 |
| 20260507130558 | 55 | 340 | 1.0 | 2.0 | 0.00 | 0.24 | 0.21 | 87 | 1012.3 |
| 20260507130107 | 55 | 43 | 0.0 | 2.0 | 0.00 | 0.24 | 0.21 | 88 | 1012.1 |
| 20260507125554 | 54 | 340 | 1.0 | 2.0 | 0.00 | 0.24 | 0.21 | 88 | 1012.1 |
| 20260507125054 | 54 | 0 | 1.0 | 2.0 | 0.00 | 0.24 | 0.21 | 87 | 1012.1 |
| 20260507124601 | 54 | 346 | 1.0 | 2.0 | 0.00 | 0.24 | 0.21 | 87 | 1012.1 |
| 20260507124057 | 54 | 45 | 0.0 | 1.0 | 0.00 | 0.24 | 0.21 | 88 | 1012.3 |
| 20260507123635 | 54 | 345 | 0.0 | 1.0 | 0.00 | 0.24 | 0.21 | 89 | 1012.4 |
| 20260507123552 | 54 | 345 | 0.0 | 1.0 | 0.00 | 0.24 | 0.21 | 89 | 1012.4 |
| 20260507123058 | 54 | 18 | 0.0 | 1.0 | 0.00 | 0.24 | 0.21 | 88 | 1012.3 |
| 20260507122553 | 54 | 0 | 0.0 | 1.0 | 0.00 | 0.24 | 0.21 | 89 | 1012.2 |
| 20260507122052 | 54 | 61 | 0.0 | 1.0 | 0.00 | 0.24 | 0.21 | 89 | 1012.2 |
| 20260507121603 | 54 | 61 | 0.0 | 1.0 | 0.00 | 0.24 | 0.21 | 89 | 1012.4 |
| 20260507121055 | 53 | 61 | 0.0 | 1.0 | 0.00 | 0.24 | 0.21 | 89 | 1012.2 |
| 20260507120554 | 53 | 0 | 0.0 | 1.0 | 0.00 | 0.24 | 0.21 | 89 | 1012.1 |
| 20260507120105 | 53 | 0 | 0.0 | 1.0 | 0.00 | 0.24 | 0.21 | 90 | 1012.2 |
| 20260507115555 | 53 | 0 | 0.0 | 1.0 | 0.00 | 0.24 | 0.21 | 89 | 1012.2 |
| 20260507115055 | 53 | 53 | 0.0 | 1.0 | 0.00 | 0.24 | 0.21 | 89 | 1012.0 |
| 20260507114610 | 53 | 53 | 0.0 | 1.0 | 0.00 | 0.24 | 0.21 | 89 | 1011.9 |
| 20260507114054 | 53 | 53 | 0.0 | 2.0 | 0.00 | 0.24 | 0.21 | 89 | 1011.9 |
| 20260507113556 | 53 | 53 | 0.0 | 2.0 | 0.00 | 0.24 | 0.21 | 90 | 1012.1 |
| 20260507113059 | 53 | 53 | 0.0 | 1.0 | 0.00 | 0.24 | 0.21 | 90 | 1012.0 |
| 20260507112553 | 53 | 0 | 0.0 | 2.0 | 0.00 | 0.24 | 0.21 | 90 | 1011.9 |
| 20260507112057 | 53 | 50 | 1.0 | 2.0 | 0.00 | 0.24 | 0.21 | 90 | 1011.9 |
| 20260507111603 | 53 | 50 | 1.0 | 2.0 | 0.00 | 0.24 | 0.21 | 90 | 1011.8 |
| 20260507111052 | 53 | 49 | 1.0 | 2.0 | 0.00 | 0.24 | 0.21 | 91 | 1011.7 |
| 20260507110558 | 53 | 61 | 1.0 | 3.0 | 0.00 | 0.24 | 0.21 | 91 | 1011.8 |
| 20260507105554 | 53 | 58 | 1.0 | 3.0 | 0.00 | 0.24 | 0.21 | 92 | 1011.6 |
| 20260507105052 | 53 | 58 | 1.0 | 2.0 | 0.00 | 0.24 | 0.21 | 91 | 1011.8 |
| 20260507104559 | 53 | 58 | 0.0 | 2.0 | 0.00 | 0.24 | 0.21 | 91 | 1012.0 |
| 20260507104054 | 53 | 58 | 0.0 | 2.0 | 0.00 | 0.24 | 0.21 | 92 | 1011.9 |
| 20260507103554 | 53 | 0 | 0.0 | 1.0 | 0.00 | 0.24 | 0.21 | 91 | 1011.9 |
| 20260507103056 | 53 | 0 | 0.0 | 1.0 | 0.00 | 0.24 | 0.21 | 92 | 1011.9 |
| 20260507102553 | 53 | 32 | 0.0 | 2.0 | 0.00 | 0.24 | 0.21 | 92 | 1011.5 |
| 20260507102054 | 54 | 0 | 0.0 | 2.0 | 0.00 | 0.24 | 0.21 | 93 | 1011.5 |
| 20260507101555 | 54 | 59 | 1.0 | 2.0 | 0.00 | 0.24 | 0.21 | 94 | 1011.4 |
| 20260507101052 | 54 | 46 | 0.0 | 3.0 | 0.00 | 0.24 | 0.21 | 94 | 1011.6 |
| 20260507100555 | 54 | 56 | 1.0 | 3.0 | 0.00 | 0.24 | 0.21 | 94 | 1011.5 |
| 20260507100058 | 54 | 0 | 0.0 | 1.0 | 0.00 | 0.24 | 0.21 | 94 | 1011.6 |
| 20260507095555 | 54 | 26 | 0.0 | 1.0 | 0.00 | 0.24 | 0.21 | 95 | 1011.5 |
| 20260507095052 | 54 | 333 | 0.0 | 3.0 | 0.00 | 0.24 | 0.21 | 95 | 1011.5 |
| 20260507094601 | 54 | 33 | 0.0 | 3.0 | 0.00 | 0.24 | 0.21 | 95 | 1011.5 |
| 20260507094057 | 54 | 59 | 0.0 | 3.0 | 0.00 | 0.24 | 0.21 | 95 | 1011.4 |
| 20260507093554 | 54 | 60 | 0.0 | 2.0 | 0.00 | 0.24 | 0.21 | 95 | 1011.3 |
| 20260507093057 | 54 | 342 | 1.0 | 3.0 | 0.00 | 0.24 | 0.21 | 95 | 1011.3 |
| 20260507092559 | 54 | 72 | 1.0 | 3.0 | 0.00 | 0.24 | 0.21 | 95 | 1011.0 |
| 20260507092058 | 54 | 55 | 2.0 | 3.0 | 0.00 | 0.24 | 0.21 | 96 | 1011.1 |
| 20260507091555 | 54 | 69 | 2.0 | 3.0 | 0.00 | 0.24 | 0.21 | 96 | 1010.7 |
| 20260507091054 | 55 | 70 | 2.0 | 3.0 | 0.00 | 0.24 | 0.21 | 96 | 1010.8 |
| 20260507090554 | 55 | 59 | 2.0 | 3.0 | 0.00 | 0.24 | 0.21 | 96 | 1010.8 |
| 20260507090057 | 55 | 61 | 1.0 | 2.0 | 0.00 | 0.24 | 0.21 | 96 | 1010.7 |
| 20260507085554 | 55 | 51 | 0.0 | 2.0 | 0.00 | 0.24 | 0.21 | 96 | 1010.7 |
| 20260507085054 | 55 | 0 | 1.0 | 2.0 | 0.00 | 0.24 | 0.21 | 95 | 1010.5 |
| 20260507084557 | 55 | 56 | 1.0 | 2.0 | 0.00 | 0.24 | 0.21 | 96 | 1010.4 |
| 20260507084054 | 55 | 0 | 0.0 | 2.0 | 0.00 | 0.24 | 0.21 | 95 | 1010.6 |
| 20260507083555 | 55 | 0 | 0.0 | 2.0 | 0.00 | 0.24 | 0.21 | 95 | 1010.7 |
| 20260507083052 | 55 | 6 | 1.0 | 4.0 | 0.00 | 0.24 | 0.21 | 95 | 1010.7 |
| 20260507082555 | 55 | 0 | 0.0 | 4.0 | 0.00 | 0.24 | 0.21 | 95 | 1010.7 |
| 20260507082055 | 55 | 330 | 0.0 | 3.0 | 0.00 | 0.24 | 0.21 | 95 | 1010.7 |
| 20260507081554 | 55 | 332 | 1.0 | 3.0 | 0.00 | 0.24 | 0.21 | 95 | 1010.5 |
| 20260507081057 | 55 | 319 | 1.0 | 4.0 | 0.00 | 0.24 | 0.21 | 95 | 1010.6 |
| 20260507080556 | 55 | 323 | 1.0 | 4.0 | 0.00 | 0.24 | 0.21 | 94 | 1010.5 |
| 20260507080101 | 55 | 27 | 2.0 | 3.0 | 0.00 | 0.24 | 0.21 | 94 | 1010.4 |
| 20260507075555 | 55 | 6 | 0.0 | 3.0 | 0.00 | 0.24 | 0.21 | 94 | 1010.5 |
| 20260507075055 | 55 | 316 | 1.0 | 5.0 | 0.01 | 0.24 | 0.21 | 94 | 1010.4 |
| 20260507074558 | 55 | 323 | 2.0 | 5.0 | 0.01 | 0.24 | 0.21 | 94 | 1010.1 |
| 20260507074055 | 56 | 19 | 1.0 | 4.0 | 0.01 | 0.24 | 0.21 | 95 | 1010.0 |
| 20260507073552 | 56 | 316 | 1.0 | 6.0 | 0.01 | 0.24 | 0.21 | 95 | 1009.9 |
| 20260507073103 | 56 | 0 | 1.0 | 10.0 | 0.01 | 0.24 | 0.21 | 95 | 1009.7 |
| 20260507072555 | 56 | 41 | 1.0 | 10.0 | 0.01 | 0.24 | 0.21 | 95 | 1009.7 |
| 20260507072057 | 57 | 254 | 2.0 | 10.0 | 0.01 | 0.24 | 0.21 | 95 | 1009.6 |
| 20260507071553 | 57 | 39 | 2.0 | 6.0 | 0.01 | 0.24 | 0.21 | 95 | 1009.5 |
| 20260507071055 | 57 | 303 | 2.0 | 6.0 | 0.01 | 0.24 | 0.21 | 95 | 1009.3 |
| 20260507070556 | 57 | 60 | 1.0 | 5.0 | 0.01 | 0.24 | 0.21 | 96 | 1009.6 |
| 20260507070103 | 57 | 7 | 1.0 | 5.0 | 0.02 | 0.24 | 0.21 | 96 | 1009.3 |
| 20260507065558 | 58 | 47 | 1.0 | 5.0 | 0.10 | 0.24 | 0.21 | 96 | 1009.1 |
| 20260507065055 | 58 | 31 | 0.0 | 2.0 | 0.12 | 0.23 | 0.20 | 96 | 1008.9 |
| 20260507064557 | 58 | 334 | 0.0 | 2.0 | 0.12 | 0.23 | 0.20 | 96 | 1009.1 |
| 20260507064055 | 58 | 61 | 1.0 | 2.0 | 0.13 | 0.23 | 0.20 | 96 | 1009.0 |
| 20260507063554 | 58 | 61 | 0.0 | 2.0 | 0.15 | 0.23 | 0.20 | 96 | 1009.4 |
| 20260507063054 | 58 | 70 | 0.0 | 2.0 | 0.16 | 0.23 | 0.20 | 96 | 1009.2 |
| 20260507062555 | 58 | 0 | 0.0 | 4.0 | 0.17 | 0.23 | 0.20 | 96 | 1009.3 |
| 20260507062055 | 58 | 13 | 0.0 | 4.0 | 0.18 | 0.23 | 0.20 | 95 | 1009.1 |
| 20260507061556 | 59 | 317 | 0.0 | 4.0 | 0.18 | 0.23 | 0.20 | 95 | 1008.9 |
| 20260507061054 | 59 | 328 | 1.0 | 4.0 | 0.18 | 0.23 | 0.20 | 95 | 1009.4 |
| 20260507060554 | 59 | 60 | 2.0 | 9.0 | 0.18 | 0.23 | 0.20 | 95 | 1009.3 |
| 20260507060100 | 60 | 35 | 5.0 | 9.0 | 0.17 | 0.22 | 0.19 | 94 | 1009.2 |
| 20260507055556 | 61 | 78 | 3.0 | 7.0 | 0.09 | 0.14 | 0.11 | 94 | 1009.6 |
| 20260507055057 | 62 | 307 | 1.0 | 3.0 | 0.06 | 0.11 | 0.08 | 96 | 1010.4 |
| 20260507054554 | 63 | 23 | 0.0 | 1.0 | 0.05 | 0.10 | 0.07 | 97 | 1009.4 |
| 20260507054054 | 63 | 0 | 0.0 | 0.0 | 0.05 | 0.10 | 0.07 | 97 | 1009.3 |
| 20260507053556 | 63 | 0 | 0.0 | 0.0 | 0.03 | 0.08 | 0.05 | 97 | 1009.2 |
| 20260507053127 | 63 | 0 | 0.0 | 0.0 | 0.03 | 0.07 | 0.04 | 96 | 1009.2 |
| 20260507052554 | 63 | 0 | 0.0 | 0.0 | 0.03 | 0.06 | 0.03 | 96 | 1009.1 |
| 20260507052055 | 63 | 0 | 0.0 | 0.0 | 0.02 | 0.05 | 0.02 | 96 | 1009.2 |
| 20260507051558 | 63 | 0 | 0.0 | 0.0 | 0.02 | 0.05 | 0.02 | 96 | 1009.2 |
| 20260507051054 | 63 | 0 | 0.0 | 0.0 | 0.02 | 0.05 | 0.02 | 96 | 1009.2 |
| 20260507050555 | 63 | 0 | 0.0 | 0.0 | 0.02 | 0.05 | 0.02 | 96 | 1009.1 |
| 20260507050056 | 63 | 0 | 0.0 | 3.0 | 0.02 | 0.05 | 0.02 | 96 | 1009.0 |
| 20260507045555 | 63 | 0 | 0.0 | 3.0 | 0.02 | 0.05 | 0.02 | 96 | 1009.0 |
| 20260507045055 | 63 | 311 | 0.0 | 0.0 | 0.02 | 0.05 | 0.02 | 95 | 1008.9 |
| 20260507044622 | 63 | 0 | 0.0 | 0.0 | 0.02 | 0.05 | 0.02 | 95 | 1008.8 |
| 20260507044056 | 63 | 0 | 0.0 | 0.0 | 0.02 | 0.05 | 0.02 | 94 | 1008.7 |
| 20260507043554 | 63 | 0 | 0.0 | 0.0 | 0.02 | 0.05 | 0.02 | 94 | 1008.8 |
| 20260507043056 | 63 | 0 | 0.0 | 0.0 | 0.01 | 0.04 | 0.01 | 94 | 1008.8 |
| 20260507042554 | 63 | 0 | 0.0 | 0.0 | 0.00 | 0.03 | 0.00 | 94 | 1009.0 |
| 20260507042053 | 63 | 0 | 0.0 | 0.0 | 0.00 | 0.03 | 0.00 | 94 | 1009.1 |
| 20260507041600 | 63 | 0 | 0.0 | 0.0 | 0.00 | 0.03 | 0.00 | 94 | 1009.1 |
| 20260507041054 | 63 | 0 | 0.0 | 0.0 | 0.00 | 0.03 | 0.00 | 94 | 1009.1 |
| 20260507040556 | 63 | 0 | 0.0 | 0.0 | 0.00 | 0.03 | 0.00 | 94 | 1009.1 |
| 20260507035554 | 63 | 0 | 0.0 | 0.0 | 0.00 | 0.03 | 0.03 | 94 | 1008.7 |
| 20260507035054 | 62 | 0 | 0.0 | 0.0 | 0.00 | 0.03 | 0.03 | 94 | 1008.8 |
| 20260507034556 | 62 | 0 | 0.0 | 0.0 | 0.00 | 0.03 | 0.03 | 94 | 1008.9 |
| 20260507034055 | 62 | 0 | 0.0 | 0.0 | 0.00 | 0.03 | 0.03 | 94 | 1008.9 |
| 20260507033554 | 62 | 0 | 0.0 | 0.0 | 0.00 | 0.03 | 0.03 | 93 | 1008.9 |
| 20260507033110 | 62 | 0 | 0.0 | 0.0 | 0.00 | 0.03 | 0.03 | 93 | 1008.9 |